Regional Weather Roundup
Issued by NWS

Home | Current Version | Previous Version | Graphics & Text | Print | Product List | Glossary On
Versions: 1 2 3 4 5 6 7 8 9 10 11 12 13 14 15 16 17 18 19 20 21 22 23 24 25 26 27 28 29 30 31 32 33 34 35 36 37 38 39 40 41 42 43 44 45 46 47 48 49 50
000
ASUS45 KBOU 180307
RWRCO

WEATHER ROUNDUP FOR COLORADO
NATIONAL WEATHER SERVICE DENVER/BOULDER CO
800 PM MST WED DEC 17 2014

NOTE: "FAIR" INDICATES FEW OR NO CLOUDS BELOW 12000 FEET WITH NO
SIGNIFICANT WEATHER AND/OR OBSTRUCTIONS TO VISIBILITY.

COZ001>005-013-030-031-180400-
...NORTHWEST COLORADO...

CITY           SKY/WX    TMP DP  RH WIND       PRES   REMARKS
CRAIG          CLOUDY    27  26  96 S3        30.01S
HAYDEN         CLOUDY    27  23  86 CALM      30.00R
MEEKER         CLOUDY    26  24  92 CALM      30.01R
MOUNT WERNER   NOT AVBL
STEAMBOAT SPGS CLOUDY    26  26  99 CALM      29.99S VSB 1/4
WALDEN         MOCLDY    18  14  86 SE3       29.97S
$$

COZ006>008-011-180400-
...WEST CENTRAL VALLEYS...

CITY           SKY/WX    TMP DP  RH WIND       PRES   REMARKS
GRAND JUNCTION CLOUDY    35  35 100 CALM      30.01S FOG
MONTROSE       CLOUDY    34  34 100 N3        30.02R
EAGLE          LGT SNOW  27  27 100 CALM      30.02R FOG
RIFLE          CLOUDY    34  32  92 CALM      30.00R
DELTA          CLOUDY    37  36  96 NE5       30.01R
NUCLA          RAIN      34  34 100 S3        30.05R
$$

COZ017>023-064>068-180400-
...SOUTHWEST COLORADO...

CITY           SKY/WX    TMP DP  RH WIND       PRES   REMARKS
DURANGO        FLURRIES  31  30  96 SW7       30.02R WCI  24
CORTEZ         FLURRIES  33  32  96 W6        30.04R WCI  28
PAGOSA SPRINGS LGT SNOW  31  31 100 CALM      30.01S
TELLURIDE      LGT SNOW  27  27 100 W5        30.00R WCI  21
WOLF CREEK PAS LGT SNOW  14  14 100 MISG      29.99S VSB 3/4
$$

COZ009-010-012-014-032>034-037-058>063-180400-
...CENTRAL COLORADO...

CITY           SKY/WX    TMP DP  RH WIND       PRES   REMARKS
ASPEN          LGT SNOW  28  27  96 CALM      29.97R FOG
BUENA VISTA    CLOUDY    28  20  74 CALM      29.96R
COPPER MTN     LGT SNOW  19  14  79 W18       29.96S WCI   4
BERTHOUD PASS  CLOUDY    12   7  79 MISG      29.96S
COTTONWOOD PAS CLOUDY    28  23  80 S3        29.96S
GUNNISON       MOCLDY    25  19  80 NE3       30.02R
KREMMLING      CLOUDY    18  14  86 CALM      30.01R
LEADVILLE      CLOUDY    19  17  92 N6        29.95S WCI  11
MONARCH PASS   FOG       16  14  93 MISG      30.06S VSB<1/4
SALIDA         CLOUDY    34  23  65 W6        30.03R WCI  29
SUNLIGHT       CLOUDY   N/A N/A N/A W3        30.00R HAZE
WILKERSON PASS LGT SNOW  19  18  93 CALM      29.98S
$$

COZ069>075-180400-
...SAN LUIS VALLEY/SANGRE DE CRISTO MOUNTAINS...

CITY           SKY/WX    TMP DP  RH WIND       PRES   REMARKS
ALAMOSA        LGT SNOW  24  22  91 E5        30.00R FOG     WCI  18
LA VETA PASS   CLOUDY    21  19  93 SW9       29.95R FOG     WCI  11
SAGUACHE       CLOUDY    27  23  86 CALM      30.00S
$$

COZ035-036-038>040-180400-
...NORTHERN COLORADO FRONT RANGE...

CITY           SKY/WX    TMP DP  RH WIND       PRES   REMARKS
DENVER INTL AP CLOUDY    33  27  78 CALM      29.95R
DMNS CITY PARK   N/A     33  26  76 NE1       29.96S
AURORA         CLOUDY    31  28  88 SW2       29.96R
FRONT RANGE AP NOT AVBL
ERIE MUNI ARPT   N/A     31  27  83 CALM      29.96R
BOULDER MUN AP MOCLDY    32  27  80 CALM      29.95S
CENTENNIAL     CLOUDY    33  26  75 CALM      29.95R
BROOMFIELD     CLOUDY    34  27  75 MISG      29.96R
FORT COLLINS   MOCLDY    28  19  69 CALM      29.97S
LONGMONT       MOCLDY    30  26  83 CALM      29.98R
$$

COZ041-046-047-076>085-087-088-180400-
...PIKES PEAK/PALMER DIVIDE AND SOUTHERN FOOTHILLS...

CITY           SKY/WX    TMP DP  RH WIND       PRES   REMARKS
COLO. SPRINGS  LGT SNOW  26  24  92 SE7       29.97R FOG     WCI  18
A. F. ACADEMY  MIX PCPN  31  31  99 N3        29.95R
ELLICOTT       NOT AVBL
FALCON         LGT SNOW  33  29  86 CALM      29.96R
FORT CARSON    CLOUDY    26  22  84 S5        29.96R WCI  21
LIMON          CLOUDY    23  21  92 SE7       29.97R WCI  15
MONUMENT HILL  LGT SNOW  30  30 100 W3        29.94S
TRINIDAD       PTCLDY    26  23  88 W6        29.96R WCI  19
$$

COZ042>045-048>051-090-091-180400-
...NORTHEAST COLORADO...

CITY           SKY/WX    TMP DP  RH WIND       PRES   REMARKS
GREELEY ARPT   MOCLDY    25  18  74 E6        29.96S WCI  18
AKRON          FOG       22  21  96 S10       29.98R VSB 1/2 WCI  11
BURLINGTON     FOG       25  22  88 E8        30.02R VSB 1/4 WCI  16
WRAY           FOG      N/A N/A N/A SE5       30.05S VSB 1/2
STERLING       CLOUDY    28  27  93 CALM      30.00S
HOLYOKE        NOT AVBL
FORT MORGAN    CLOUDY    21  19  89 N3        29.99S
$$

COZ086-089-092>099-180400-
...SOUTHEAST COLORADO...

CITY           SKY/WX    TMP DP  RH WIND       PRES   REMARKS
PUEBLO         NOT AVBL
LA JUNTA       CLOUDY    28  24  85 N6        30.01R WCI  22
LAMAR          CLOUDY    29  29 100 N5        30.01R FOG     WCI  24
SPRINGFIELD      N/A     25  24  96 N8        29.96F WCI  16
$$



USA.gov is the U.S. government's official web portal to all federal, state and local government web resources and services.